Terug naar catalogus

DELTA 1 DEB

ActiefPO
NORAD 21441·DEBRIS·🇺🇸 United States

Gelanceerd Jun 12, 1975 vanaf Vandenberg Space Force Base

Loading…

Volgende Passages (komende 24 uur)

TLE

VersSource: Space-Track

Epoch: Sep 14, 2026, 06:17 UTC

1 21441U 75052DZ  26257.26204773  .00000102  00000-0  47594-3 0  9999
2 21441  99.7234   4.6029 0302674 309.8730  74.6970 12.84269790657011

Volg DELTA 1 DEB in realtime met AllMySat

Download on the App Store